sat.trackr.live / text

‹ back to catalog

STARLINK-11436 [DTC]

NORAD 62887 · 2025-024J

PAYLOAD ACTIVE UNKNOWN

§ Identity

Operator
Country
US
Launch date
2025-02-04
Launch site
AFETR
Launch vehicle
Mass (kg)
RCS (m²)

Purposes: comms

External: N2YO · Heavens-Above · Gunter

§ Orbital elements

Epoch: 2026-09-21T21:11:24.667296Z

Period
91.66 min
Inclination
42.9977°
Eccentricity
0.0001769
Mean motion
15.71022919 rev/d
Perigee alt
354.8 km
Apogee alt
357.2 km
Semi-major
6,734.1 km
B*
1.2321e-3
RAAN
78.7834°
Arg perigee
19.6588°
Mean anomaly
340.4348°
Rev number
9,432

§ Raw data

STARLINK-11436 [DTC]1 62887U 25024J   26264.88292439  .00162005  00000+0  12321-2 0  99932 62887  42.9977  78.7834 0001769  19.6588 340.4348 15.71022919 94329

JSON: /api/v1/satellites/62887 · /tle

For live sub-satellite position, see the globe view (requires WebGL).

§ Visibility from observer

Set your observer location to see the next 7 days of passes ≥ 10°. The values pass through the URL so the page stays shareable.

No JS? Fill the form by hand. The geolocation button needs JavaScript.